User: anonymous   Login
Location: Dompnac
(44.5644°N, 4.1026°E)
Time: 17:49:25
(UTC+00:00)
Language:

Cosmos 1975 - Orbit

View from above orbital plane
View from above orbital plane
View from above satellite
View from above satellite

Ground track
Ground track

The orbit data is extracted from the following two-line orbital elements,

1 19573U 88093A   20338.37365687  .00001263  00000-0  86892-4 0  9993
2 19573  82.5208 200.5528 0013300 311.7147  48.2941 15.04999284750051
Epoch (UTC): 03 December 2020 08:58:03
Eccentricity: 0.0013300
inclination: 82.5208°
perigee height: 542 km
apogee height: 561 km
right ascension of ascending node: 200.5528°
argument of perigee: 311.7147°
revolutions per day: 15.04999284
mean anomaly at epoch: 48.2941°
orbit number at epoch: 75005

The dashed part of the orbit path shows where the satellite is in the earth's shadow,  

DLR